﻿測定場所 (Monitoring sites),日付 (Measurement date),時間 (Measurement time),線量率 最大値 (max) μGy/h,線量率 最小値 (min) μGy/h,線量率 平均値 (average) μGy/h,
江戸川 (Edogawa),2023-03-05,23:01～24:00,0.0444,0.0385,0.0415,
江戸川 (Edogawa),2023-03-05,22:01～23:00,0.0444,0.0368,0.0409,
江戸川 (Edogawa),2023-03-05,21:01～22:00,0.0440,0.0385,0.0413,
江戸川 (Edogawa),2023-03-05,20:01～21:00,0.0440,0.0386,0.0413,
江戸川 (Edogawa),2023-03-05,19:01～20:00,0.0446,0.0362,0.0408,
江戸川 (Edogawa),2023-03-05,18:01～19:00,0.0437,0.0381,0.0412,
江戸川 (Edogawa),2023-03-05,17:01～18:00,0.0441,0.0389,0.0410,
江戸川 (Edogawa),2023-03-05,16:01～17:00,0.0435,0.0368,0.0400,
江戸川 (Edogawa),2023-03-05,15:01～16:00,0.0434,0.0375,0.0402,
江戸川 (Edogawa),2023-03-05,14:01～15:00,0.0423,0.0378,0.0400,
江戸川 (Edogawa),2023-03-05,13:01～14:00,0.0435,0.0370,0.0404,
江戸川 (Edogawa),2023-03-05,12:01～13:00,0.0441,0.0374,0.0407,
江戸川 (Edogawa),2023-03-05,11:01～12:00,0.0435,0.0383,0.0411,
江戸川 (Edogawa),2023-03-05,10:01～11:00,0.0436,0.0368,0.0401,
江戸川 (Edogawa),2023-03-05,09:01～10:00,0.0430,0.0377,0.0403,
江戸川 (Edogawa),2023-03-05,08:01～09:00,0.0439,0.0382,0.0410,
江戸川 (Edogawa),2023-03-05,07:01～08:00,0.0441,0.0376,0.0410,
江戸川 (Edogawa),2023-03-05,06:01～07:00,0.0437,0.0383,0.0411,
江戸川 (Edogawa),2023-03-05,05:01～06:00,0.0446,0.0384,0.0413,
江戸川 (Edogawa),2023-03-05,04:01～05:00,0.0438,0.0385,0.0411,
江戸川 (Edogawa),2023-03-05,03:01～04:00,0.0437,0.0384,0.0411,
江戸川 (Edogawa),2023-03-05,02:01～03:00,0.0441,0.0370,0.0411,
江戸川 (Edogawa),2023-03-05,01:01～02:00,0.0436,0.0384,0.0408,
江戸川 (Edogawa),2023-03-05,00:01～01:00,0.0447,0.0384,0.0414,
江戸川 (Edogawa),2023-03-04,23:01～24:00,0.0437,0.0378,0.0412,
江戸川 (Edogawa),2023-03-04,22:01～23:00,0.0441,0.0371,0.0410,
江戸川 (Edogawa),2023-03-04,21:01～22:00,0.0443,0.0371,0.0411,
江戸川 (Edogawa),2023-03-04,20:01～21:00,0.0453,0.0370,0.0410,
江戸川 (Edogawa),2023-03-04,19:01～20:00,0.0442,0.0373,0.0406,
江戸川 (Edogawa),2023-03-04,18:01～19:00,0.0444,0.0387,0.0415,
江戸川 (Edogawa),2023-03-04,17:01～18:00,0.0435,0.0383,0.0411,
江戸川 (Edogawa),2023-03-04,16:01～17:00,0.0445,0.0384,0.0413,
江戸川 (Edogawa),2023-03-04,15:01～16:00,0.0446,0.0383,0.0411,
江戸川 (Edogawa),2023-03-04,14:01～15:00,0.0437,0.0387,0.0412,
江戸川 (Edogawa),2023-03-04,13:01～14:00,0.0442,0.0382,0.0413,
江戸川 (Edogawa),2023-03-04,12:01～13:00,0.0442,0.0388,0.0413,
江戸川 (Edogawa),2023-03-04,11:01～12:00,0.0442,0.0385,0.0411,
江戸川 (Edogawa),2023-03-04,10:01～11:00,0.0440,0.0392,0.0416,
江戸川 (Edogawa),2023-03-04,09:01～10:00,0.0452,0.0386,0.0419,
江戸川 (Edogawa),2023-03-04,08:01～09:00,0.0451,0.0396,0.0419,
江戸川 (Edogawa),2023-03-04,07:01～08:00,0.0445,0.0387,0.0416,
江戸川 (Edogawa),2023-03-04,06:01～07:00,0.0444,0.0386,0.0415,
江戸川 (Edogawa),2023-03-04,05:01～06:00,0.0446,0.0385,0.0414,
江戸川 (Edogawa),2023-03-04,04:01～05:00,0.0441,0.0378,0.0413,
江戸川 (Edogawa),2023-03-04,03:01～04:00,0.0440,0.0385,0.0412,
江戸川 (Edogawa),2023-03-04,02:01～03:00,0.0448,0.0381,0.0413,
江戸川 (Edogawa),2023-03-04,01:01～02:00,0.0450,0.0381,0.0410,
江戸川 (Edogawa),2023-03-04,00:01～01:00,0.0441,0.0366,0.0411,
江戸川 (Edogawa),2023-03-03,23:01～24:00,0.0433,0.0375,0.0406,
江戸川 (Edogawa),2023-03-03,22:01～23:00,0.0437,0.0370,0.0407,
江戸川 (Edogawa),2023-03-03,21:01～22:00,0.0441,0.0388,0.0410,
江戸川 (Edogawa),2023-03-03,20:01～21:00,0.0455,0.0374,0.0410,
江戸川 (Edogawa),2023-03-03,19:01～20:00,0.0443,0.0377,0.0407,
江戸川 (Edogawa),2023-03-03,18:01～19:00,0.0442,0.0378,0.0407,
江戸川 (Edogawa),2023-03-03,17:01～18:00,0.0452,0.0369,0.0408,
江戸川 (Edogawa),2023-03-03,16:01～17:00,0.0430,0.0381,0.0408,
江戸川 (Edogawa),2023-03-03,15:01～16:00,0.0437,0.0389,0.0409,
江戸川 (Edogawa),2023-03-03,14:01～15:00,0.0451,0.0385,0.0415,
江戸川 (Edogawa),2023-03-03,13:01～14:00,0.0444,0.0385,0.0416,
江戸川 (Edogawa),2023-03-03,12:01～13:00,0.0442,0.0391,0.0413,
江戸川 (Edogawa),2023-03-03,11:01～12:00,0.0454,0.0382,0.0416,
江戸川 (Edogawa),2023-03-03,10:01～11:00,0.0440,0.0385,0.0414,
江戸川 (Edogawa),2023-03-03,09:01～10:00,0.0449,0.0372,0.0409,
江戸川 (Edogawa),2023-03-03,08:01～09:00,0.0431,0.0369,0.0408,
江戸川 (Edogawa),2023-03-03,07:01～08:00,0.0438,0.0378,0.0406,
江戸川 (Edogawa),2023-03-03,06:01～07:00,0.0440,0.0371,0.0409,
江戸川 (Edogawa),2023-03-03,05:01～06:00,0.0433,0.0376,0.0404,
江戸川 (Edogawa),2023-03-03,04:01～05:00,0.0432,0.0385,0.0406,
江戸川 (Edogawa),2023-03-03,03:01～04:00,0.0437,0.0373,0.0405,
江戸川 (Edogawa),2023-03-03,02:01～03:00,0.0436,0.0369,0.0407,
江戸川 (Edogawa),2023-03-03,01:01～02:00,0.0441,0.0381,0.0407,
江戸川 (Edogawa),2023-03-03,00:01～01:00,0.0444,0.0378,0.0408,
江戸川 (Edogawa),2023-03-02,23:01～24:00,0.0438,0.0381,0.0409,
江戸川 (Edogawa),2023-03-02,22:01～23:00,0.0450,0.0369,0.0413,
江戸川 (Edogawa),2023-03-02,21:01～22:00,0.0461,0.0394,0.0424,
江戸川 (Edogawa),2023-03-02,20:01～21:00,0.0489,0.0420,0.0454,
江戸川 (Edogawa),2023-03-02,19:01～20:00,0.0469,0.0397,0.0421,
江戸川 (Edogawa),2023-03-02,18:01～19:00,0.0467,0.0393,0.0425,
江戸川 (Edogawa),2023-03-02,17:01～18:00,0.0469,0.0394,0.0424,
江戸川 (Edogawa),2023-03-02,16:01～17:00,0.0452,0.0380,0.0423,
江戸川 (Edogawa),2023-03-02,15:01～16:00,0.0453,0.0389,0.0418,
江戸川 (Edogawa),2023-03-02,14:01～15:00,0.0441,0.0382,0.0414,
江戸川 (Edogawa),2023-03-02,13:01～14:00,0.0446,0.0385,0.0414,
江戸川 (Edogawa),2023-03-02,12:01～13:00,0.0445,0.0393,0.0412,
江戸川 (Edogawa),2023-03-02,11:01～12:00,0.0448,0.0372,0.0409,
江戸川 (Edogawa),2023-03-02,10:01～11:00,0.0439,0.0385,0.0414,
江戸川 (Edogawa),2023-03-02,09:01～10:00,0.0439,0.0389,0.0414,
江戸川 (Edogawa),2023-03-02,08:01～09:00,0.0436,0.0380,0.0409,
江戸川 (Edogawa),2023-03-02,07:01～08:00,0.0445,0.0376,0.0409,
江戸川 (Edogawa),2023-03-02,06:01～07:00,0.0451,0.0378,0.0405,
江戸川 (Edogawa),2023-03-02,05:01～06:00,0.0428,0.0377,0.0402,
江戸川 (Edogawa),2023-03-02,04:01～05:00,0.0427,0.0376,0.0403,
江戸川 (Edogawa),2023-03-02,03:01～04:00,0.0444,0.0375,0.0406,
江戸川 (Edogawa),2023-03-02,02:01～03:00,0.0438,0.0379,0.0406,
江戸川 (Edogawa),2023-03-02,01:01～02:00,0.0435,0.0377,0.0406,
江戸川 (Edogawa),2023-03-02,00:01～01:00,0.0434,0.0371,0.0403,
江戸川 (Edogawa),2023-03-01,23:01～24:00,0.0448,0.0376,0.0406,
江戸川 (Edogawa),2023-03-01,22:01～23:00,0.0445,0.0366,0.0406,
江戸川 (Edogawa),2023-03-01,21:01～22:00,0.0433,0.0381,0.0408,
江戸川 (Edogawa),2023-03-01,20:01～21:00,0.0439,0.0368,0.0403,
江戸川 (Edogawa),2023-03-01,19:01～20:00,0.0445,0.0371,0.0407,
江戸川 (Edogawa),2023-03-01,18:01～19:00,0.0441,0.0385,0.0408,
江戸川 (Edogawa),2023-03-01,17:01～18:00,0.0438,0.0379,0.0405,
江戸川 (Edogawa),2023-03-01,16:01～17:00,0.0436,0.0387,0.0410,
江戸川 (Edogawa),2023-03-01,15:01～16:00,0.0439,0.0377,0.0409,
江戸川 (Edogawa),2023-03-01,14:01～15:00,0.0452,0.0391,0.0414,
江戸川 (Edogawa),2023-03-01,13:01～14:00,0.0450,0.0387,0.0415,
江戸川 (Edogawa),2023-03-01,12:01～13:00,0.0457,0.0383,0.0416,
江戸川 (Edogawa),2023-03-01,11:01～12:00,0.0442,0.0385,0.0414,
江戸川 (Edogawa),2023-03-01,10:01～11:00,0.0450,0.0389,0.0416,
江戸川 (Edogawa),2023-03-01,09:01～10:00,0.0451,0.0388,0.0416,
江戸川 (Edogawa),2023-03-01,08:01～09:00,0.0440,0.0387,0.0414,
江戸川 (Edogawa),2023-03-01,07:01～08:00,0.0449,0.0370,0.0409,
江戸川 (Edogawa),2023-03-01,06:01～07:00,0.0449,0.0382,0.0403,
江戸川 (Edogawa),2023-03-01,05:01～06:00,0.0432,0.0372,0.0404,
江戸川 (Edogawa),2023-03-01,04:01～05:00,0.0426,0.0374,0.0405,
江戸川 (Edogawa),2023-03-01,03:01～04:00,0.0438,0.0372,0.0407,
江戸川 (Edogawa),2023-03-01,02:01～03:00,0.0449,0.0368,0.0404,
江戸川 (Edogawa),2023-03-01,01:01～02:00,0.0448,0.0383,0.0407,
江戸川 (Edogawa),2023-03-01,00:01～01:00,0.0432,0.0372,0.0405,
江戸川 (Edogawa),2023-02-28,23:01～24:00,0.0436,0.0365,0.0405,
江戸川 (Edogawa),2023-02-28,22:01～23:00,0.0433,0.0376,0.0405,
江戸川 (Edogawa),2023-02-28,21:01～22:00,0.0439,0.0384,0.0409,
江戸川 (Edogawa),2023-02-28,20:01～21:00,0.0441,0.0385,0.0403,
江戸川 (Edogawa),2023-02-28,19:01～20:00,0.0439,0.0380,0.0404,
江戸川 (Edogawa),2023-02-28,18:01～19:00,0.0430,0.0381,0.0404,
江戸川 (Edogawa),2023-02-28,17:01～18:00,0.0437,0.0379,0.0404,
江戸川 (Edogawa),2023-02-28,16:01～17:00,0.0447,0.0385,0.0411,
江戸川 (Edogawa),2023-02-28,15:01～16:00,0.0434,0.0385,0.0409,
江戸川 (Edogawa),2023-02-28,14:01～15:00,0.0454,0.0382,0.0409,
江戸川 (Edogawa),2023-02-28,13:01～14:00,0.0435,0.0369,0.0407,
江戸川 (Edogawa),2023-02-28,12:01～13:00,0.0447,0.0383,0.0408,
江戸川 (Edogawa),2023-02-28,11:01～12:00,0.0440,0.0377,0.0411,
江戸川 (Edogawa),2023-02-28,10:01～11:00,0.0434,0.0389,0.0411,
江戸川 (Edogawa),2023-02-28,09:01～10:00,0.0441,0.0389,0.0417,
江戸川 (Edogawa),2023-02-28,08:01～09:00,0.0448,0.0381,0.0416,
江戸川 (Edogawa),2023-02-28,07:01～08:00,0.0456,0.0379,0.0413,
江戸川 (Edogawa),2023-02-28,06:01～07:00,0.0441,0.0386,0.0411,
江戸川 (Edogawa),2023-02-28,05:01～06:00,0.0438,0.0385,0.0409,
江戸川 (Edogawa),2023-02-28,04:01～05:00,0.0443,0.0366,0.0411,
江戸川 (Edogawa),2023-02-28,03:01～04:00,0.0458,0.0384,0.0414,
江戸川 (Edogawa),2023-02-28,02:01～03:00,0.0448,0.0381,0.0406,
江戸川 (Edogawa),2023-02-28,01:01～02:00,0.0425,0.0371,0.0402,
江戸川 (Edogawa),2023-02-28,00:01～01:00,0.0430,0.0370,0.0401,
江戸川 (Edogawa),2023-02-27,23:01～24:00,0.0444,0.0377,0.0402,
江戸川 (Edogawa),2023-02-27,22:01～23:00,0.0432,0.0375,0.0403,
江戸川 (Edogawa),2023-02-27,21:01～22:00,0.0430,0.0378,0.0403,
江戸川 (Edogawa),2023-02-27,20:01～21:00,0.0434,0.0381,0.0403,
江戸川 (Edogawa),2023-02-27,19:01～20:00,0.0438,0.0371,0.0403,
江戸川 (Edogawa),2023-02-27,18:01～19:00,0.0438,0.0379,0.0402,
江戸川 (Edogawa),2023-02-27,17:01～18:00,0.0438,0.0374,0.0404,
江戸川 (Edogawa),2023-02-27,16:01～17:00,0.0436,0.0368,0.0405,
江戸川 (Edogawa),2023-02-27,15:01～16:00,0.0442,0.0386,0.0407,
江戸川 (Edogawa),2023-02-27,14:01～15:00,0.0443,0.0372,0.0406,
江戸川 (Edogawa),2023-02-27,13:01～14:00,0.0437,0.0371,0.0408,
江戸川 (Edogawa),2023-02-27,12:01～13:00,0.0444,0.0388,0.0409,
江戸川 (Edogawa),2023-02-27,11:01～12:00,0.0443,0.0382,0.0409,
江戸川 (Edogawa),2023-02-27,10:01～11:00,0.0432,0.0370,0.0407,
江戸川 (Edogawa),2023-02-27,09:01～10:00,0.0433,0.0366,0.0401,
江戸川 (Edogawa),2023-02-27,08:01～09:00,0.0428,0.0368,0.0402,
江戸川 (Edogawa),2023-02-27,07:01～08:00,0.0434,0.0371,0.0397,
江戸川 (Edogawa),2023-02-27,06:01～07:00,0.0425,0.0375,0.0400,
江戸川 (Edogawa),2023-02-27,05:01～06:00,0.0423,0.0371,0.0400,
江戸川 (Edogawa),2023-02-27,04:01～05:00,0.0427,0.0369,0.0397,
江戸川 (Edogawa),2023-02-27,03:01～04:00,0.0438,0.0371,0.0399,
江戸川 (Edogawa),2023-02-27,02:01～03:00,0.0434,0.0369,0.0398,
江戸川 (Edogawa),2023-02-27,01:01～02:00,0.0432,0.0367,0.0398,
江戸川 (Edogawa),2023-02-27,00:01～01:00,0.0427,0.0370,0.0401,
